Rogers City, MI

12:13 AM EDT on August 17, 2017 (GMT -0400)
Presque Isle County

Weather History for KPZQ - December, 2013

Change the Weather History Date:

Saturday, December 14, 2013

  Actual Average (KAPN) Record (KAPN)
Temperature  
Mean Temperature 15 °F -  
Max Temperature 19 °F 32 °F 61 °F (1975)
Min Temperature 11 °F 19 °F -3 °F (1943)
Degree Days  
Heating Degree Days 50    
Moisture  
Dew Point 13 °F    
Average Humidity 86    
Maximum Humidity 93    
Minimum Humidity 72    
Precipitation  
Precipitation 0.00 in - - ()
Sea Level Pressure  
Sea Level Pressure 30.20 in    
Wind  
Wind Speed 11 mph (East)    
Max Wind Speed 20 mph    
Max Gust Speed 29 mph    
Visibility 4 miles    
Events Snow    
Averages and records for this station are not official NWS values.
T = Trace of Precipitation, MM = Missing Value Source: NWS Daily Summary

Daily Weather History Graph

Daily Weather History Graph

Search for Another Location

Airport or City:

Trip Planner

Search our weather history database for the weather conditions in past years. The results will help you decide how hot, cold, wet, or windy it might be!

Date:

Astronomy

Dec. 14, 2013 Rise Set
Actual Time 8:07 AM EST 4:52 PM EST
Civil Twilight 7:33 AM EST 5:26 PM EST
Nautical Twilight 6:55 AM EST 6:04 PM EST
Astronomical Twilight 6:19 AM EST 6:40 PM EST
Moon 3:18 PM EST (12/14) 5:22 AM EST (12/14)
Length of Visible Light 9h 53m
Length of Day
8h 44m
Waxing Gibbous, 93% of the Moon is Illuminated
Dec 14
Waxing Gibbous
Dec 17
Full
Dec 25
Last Quarter
Jan 1
New
Jan 7
First Quarter

Hourly Weather History & Observations

Time (EST) Temp. Windchill Dew Point Humidity Pressure Visibility Wind Dir Wind Speed Gust Speed Precip Events Conditions
12:14 AM 11.3 °F 0.7 °F 4.8 °F 75% 30.40 in 10.0 mi NE 6.9 mph - N/A   Overcast
12:35 AM 11.7 °F 1.1 °F 5.2 °F 75% 30.40 in 7.0 mi East 6.9 mph - N/A   Overcast
12:55 AM 11.7 °F 0.0 °F 6.1 °F 78% 30.40 in 5.0 mi ENE 8.1 mph - N/A Snow Light Snow
1:15 AM 11.3 °F -1.3 °F 5.4 °F 77% 30.39 in 5.0 mi ENE 9.2 mph - N/A Snow Light Snow
1:35 AM 11.3 °F 0.7 °F 6.4 °F 81% 30.39 in 3.0 mi ENE 6.9 mph - N/A Snow Light Snow
1:55 AM 11.3 °F -1.3 °F 5.5 °F 78% 30.39 in 7.0 mi East 9.2 mph - N/A Snow Light Snow
2:15 AM 11.5 °F -1.1 °F 5.5 °F 77% 30.39 in 10.0 mi NE 9.2 mph - N/A   Overcast
2:35 AM 11.5 °F 2.1 °F 4.8 °F 75% 30.40 in 10.0 mi ENE 5.8 mph - N/A   Overcast
2:55 AM 12.2 °F 0.7 °F 6.1 °F 76% 30.40 in 7.0 mi ENE 8.1 mph - N/A Snow Light Snow
3:15 AM 12.6 °F 1.1 °F 7.2 °F 79% 30.40 in 7.0 mi East 8.1 mph - N/A Snow Light Snow
3:35 AM 12.2 °F -1.0 °F 6.8 °F 79% 30.39 in 10.0 mi East 10.4 mph - N/A   Overcast
3:54 AM 12.6 °F 0.2 °F 6.6 °F 77% 30.39 in 10.0 mi East 9.2 mph - N/A   Overcast
4:15 AM 12.6 °F -1.4 °F 6.8 °F 78% 30.38 in 7.0 mi East 11.5 mph - N/A Snow Light Snow
4:34 AM 12.6 °F 1.1 °F 7.2 °F 79% 30.37 in 7.0 mi East 8.1 mph - N/A Snow Light Snow
4:55 AM 12.6 °F 4.8 °F 6.8 °F 78% 30.37 in 10.0 mi SE 4.6 mph - N/A   Mostly Cloudy
5:15 AM 12.2 °F 6.1 °F 7.3 °F 81% 30.36 in 10.0 mi ESE 3.5 mph - N/A   Scattered Clouds
5:34 AM 14.4 °F 1.6 °F 8.6 °F 78% 30.35 in 10.0 mi East 10.4 mph - N/A   Mostly Cloudy
5:55 AM 15.3 °F 2.8 °F 11.3 °F 84% 30.35 in 2.5 mi East 10.4 mph 17.3 mph N/A Snow Light Snow
6:15 AM 15.4 °F 1.6 °F 12.0 °F 86% 30.35 in 2.0 mi East 12.7 mph 18.4 mph N/A Snow Light Snow
6:35 AM 15.6 °F 1.8 °F 12.6 °F 88% 30.35 in 2.0 mi ENE 12.7 mph 18.4 mph N/A Snow Light Snow
6:55 AM 15.8 °F 1.4 °F 13.1 °F 89% 30.34 in 1.5 mi ENE 13.8 mph 23.0 mph N/A Snow Light Snow
7:14 AM 16.5 °F 1.8 °F 14.0 °F 90% 30.33 in 1.5 mi East 15.0 mph 23.0 mph N/A Snow Light Snow
7:34 AM 16.5 °F 1.8 °F 14.2 °F 90% 30.33 in 0.5 mi ENE 15.0 mph 24.2 mph N/A Snow Snow
7:55 AM 16.7 °F 4.5 °F 14.9 °F 93% 30.33 in 0.8 mi East 10.4 mph 19.6 mph N/A Snow Snow
8:15 AM 16.5 °F 6.0 °F 14.7 °F 93% 30.34 in 0.8 mi ESE 8.1 mph - N/A Snow Snow
8:34 AM 16.5 °F 4.3 °F 13.8 °F 89% 30.34 in 5.0 mi ESE 10.4 mph - N/A Snow Light Snow
8:55 AM 16.3 °F 3.4 °F 13.6 °F 89% 30.34 in 1.8 mi ESE 11.5 mph - N/A Snow Light Snow
9:15 AM 16.7 °F 3.8 °F 14.0 °F 89% 30.33 in 1.0 mi ESE 11.5 mph 17.3 mph N/A Snow Light Snow
9:35 AM 16.7 °F 3.2 °F 14.0 °F 89% 30.33 in 2.5 mi ESE 12.7 mph 16.1 mph N/A Snow Light Snow
9:55 AM 17.2 °F 3.9 °F 13.1 °F 84% 30.33 in 10.0 mi ESE 12.7 mph 19.6 mph N/A   Overcast
10:15 AM 17.6 °F 3.7 °F 13.1 °F 83% 30.32 in 7.0 mi ESE 13.8 mph 20.7 mph N/A Snow Light Snow
10:35 AM 17.8 °F 2.9 °F 12.2 °F 79% 30.31 in 7.0 mi East 16.1 mph 24.2 mph N/A Snow Light Snow
10:55 AM 18.1 °F 2.9 °F 12.7 °F 79% 30.30 in 7.0 mi East 17.3 mph 25.3 mph N/A Snow Light Snow
11:15 AM 18.3 °F 3.1 °F 12.7 °F 79% 30.29 in 10.0 mi East 17.3 mph 23.0 mph N/A   Overcast
11:35 AM 18.5 °F 3.8 °F 12.4 °F 77% 30.27 in 10.0 mi East 16.1 mph 25.3 mph N/A   Overcast
11:55 AM 18.7 °F 3.1 °F 12.7 °F 78% 30.26 in 7.0 mi East 18.4 mph 23.0 mph N/A Snow Light Snow
12:15 PM 18.5 °F 2.9 °F 15.1 °F 86% 30.24 in 0.8 mi East 18.4 mph - N/A Snow Light Snow
12:35 PM 18.5 °F 5.5 °F 13.1 °F 79% 30.22 in 10.0 mi ESE 12.7 mph 19.6 mph N/A   Overcast
12:54 PM 19.4 °F 7.2 °F 12.0 °F 73% 30.20 in 10.0 mi ESE 11.5 mph - N/A   Overcast
1:15 PM 19.4 °F 6.6 °F 11.8 °F 72% 30.19 in 10.0 mi ESE 12.7 mph 17.3 mph N/A   Scattered Clouds
1:35 PM 19.4 °F 5.0 °F 13.8 °F 79% 30.18 in 4.0 mi East 16.1 mph - N/A Snow Light Snow
1:55 PM 18.9 °F 6.5 °F 15.8 °F 88% 30.17 in 0.5 mi East 11.5 mph 19.6 mph N/A Snow Snow
2:15 PM 18.9 °F 5.9 °F 16.5 °F 91% 30.16 in 0.5 mi ESE 12.7 mph - N/A Snow Light Snow
2:35 PM 18.9 °F 6.5 °F 15.8 °F 88% 30.15 in 2.0 mi East 11.5 mph 20.7 mph N/A Snow Light Snow
2:55 PM 19.0 °F 6.8 °F 16.5 °F 90% 30.13 in 0.8 mi East 11.5 mph - N/A Snow Snow
3:15 PM 19.0 °F 9.0 °F 16.5 °F 90% 30.13 in 1.5 mi ESE 8.1 mph - N/A Snow Light Snow
3:34 PM 19.2 °F 8.4 °F 16.7 °F 90% 30.12 in 1.8 mi East 9.2 mph - N/A Snow Light Snow
3:55 PM 19.8 °F 7.1 °F 17.1 °F 89% 30.11 in 1.0 mi East 12.7 mph 16.1 mph N/A Snow Light Snow
4:15 PM 19.6 °F 8.1 °F 17.2 °F 91% 30.10 in 1.0 mi East 10.4 mph 17.3 mph N/A Snow Light Snow
4:35 PM 19.9 °F 5.7 °F 17.6 °F 91% 30.09 in 0.8 mi East 16.1 mph 19.6 mph N/A Snow Snow
4:55 PM 19.0 °F 3.2 °F 17.2 °F 93% 30.07 in 0.8 mi ENE 19.6 mph 25.3 mph N/A Snow Snow
5:15 PM 18.7 °F 2.7 °F 16.7 °F 92% 30.07 in 1.0 mi ENE 19.6 mph 28.8 mph N/A Snow Snow
5:35 PM 18.9 °F 4.3 °F 16.9 °F 92% 30.06 in 1.5 mi ENE 16.1 mph 26.5 mph N/A Snow Light Snow
5:55 PM 19.0 °F 3.6 °F 17.1 °F 92% 30.05 in 1.2 mi East 18.4 mph 26.5 mph N/A Snow Light Snow
6:15 PM 19.0 °F 4.0 °F 17.2 °F 93% 30.03 in 1.0 mi East 17.3 mph 27.6 mph N/A Snow Snow
6:35 PM 19.4 °F 4.5 °F 17.6 °F 93% 30.03 in 0.8 mi East 17.3 mph 26.5 mph N/A Snow Snow
6:54 PM 19.4 °F 6.0 °F 17.6 °F 93% 30.02 in 1.0 mi East 13.8 mph 24.2 mph N/A Snow Snow
7:15 PM 19.2 °F 5.8 °F 17.2 °F 92% 30.01 in 1.2 mi East 13.8 mph 25.3 mph N/A Snow Light Snow
7:35 PM 19.0 °F 4.0 °F 17.2 °F 93% 30.01 in 1.0 mi ENE 17.3 mph 28.8 mph N/A Snow Light Snow
7:54 PM 19.2 °F 4.7 °F 17.4 °F 93% 30.00 in 1.2 mi East 16.1 mph 25.3 mph N/A Snow Light Snow
8:15 PM 19.0 °F 4.0 °F 17.2 °F 93% 29.99 in 1.2 mi East 17.3 mph 25.3 mph N/A Snow Light Snow
8:35 PM 19.0 °F 4.5 °F 17.1 °F 92% 29.98 in 2.0 mi East 16.1 mph 26.5 mph N/A Snow Light Snow
8:55 PM 18.9 °F 4.3 °F 16.7 °F 91% 29.97 in 1.8 mi East 16.1 mph 24.2 mph N/A Snow Light Snow
9:15 PM 18.5 °F 3.3 °F 16.3 °F 91% 29.96 in 3.0 mi East 17.3 mph 24.2 mph N/A Snow Light Snow
9:35 PM 18.3 °F 4.6 °F 15.8 °F 90% 29.96 in 4.0 mi East 13.8 mph 20.7 mph N/A Snow Light Snow
9:55 PM 18.1 °F 3.9 °F 15.6 °F 90% 29.95 in 3.0 mi East 15.0 mph 23.0 mph N/A Snow Light Snow
10:15 PM 18.1 °F 4.4 °F 15.8 °F 91% 29.94 in 4.0 mi East 13.8 mph 20.7 mph N/A Snow Light Snow
10:34 PM 18.3 °F 5.9 °F 15.8 °F 90% 29.93 in 5.0 mi ENE 11.5 mph 17.3 mph N/A Snow Light Snow
10:55 PM 18.3 °F 4.6 °F 15.8 °F 90% 29.93 in 4.0 mi East 13.8 mph 18.4 mph N/A Snow Light Snow
11:15 PM 18.1 °F 5.6 °F 15.8 °F 91% 29.91 in 3.0 mi ENE 11.5 mph 16.1 mph N/A Snow Light Snow
11:35 PM 17.8 °F 4.6 °F 15.8 °F 92% 29.90 in 2.5 mi ENE 12.7 mph 19.6 mph N/A Snow Light Snow
11:55 PM 17.6 °F 5.0 °F 15.6 °F 92% 29.89 in 2.0 mi ENE 11.5 mph - N/A Snow Light Snow